ROMMA est une association bénévole à but non lucratif. Votre soutien est indispensable : ADHERER à ROMMA ou FAIRE un DON

Miribel-les-Echelles - (38, Isère)

Massif de la Chartreuse (760 m)   Longitude: 05° 41' 54'' E   Latitude: 45° 26' 40'' N Station romma n°22
 

Détail journalier du     <<     >>

Température Precipitation Humidité Pression Vent Dir Rafale Dir. rafale Ensol.
Heure (°C) (mm) (%) (hPa) (km/h) (km/h) (min)
01:00 11.809710192NE6NO0
02:00 11.8097101903NE0
03:00 11.109710192O10ONO0
04:00 10.909710191SE10ONO0
05:00 11.309710191SSE11SE0
06:00 10.90.297101905E0
07:00 10.509710192ONO6ONO0
08:00 10.8097101905NE0
09:00 11.4097102003SSE0
10:00 12.109710201SE5SO0
11:00 12.209710202ESE6ESE30
12:00 13.709810202S6ESE60
13:00 12.309710194O15NO0
14:00 12.209710194ONO15O0
15:00 11.809710192ONO15ONO0
16:00 11.809710192ONO11O0
17:00 11.209710193O16O30
18:00 10.3097101906ONO0
19:00 10.409710192N15ONO0
20:00 10.409710203ONO16ONO0
21:00 10.4097101905S0
22:00 10.4097101903S0
23:00 9.909710191ONO6ONO0
minuit 10.3097101903SSE0

Graphique du 30-10-2019

 

Serveur OMMA